sat.trackr.live / text

‹ back to catalog

STARLINK-34436

NORAD 64358 · 2025-126Q

PAYLOAD ACTIVE UNKNOWN

§ Identity

Operator
Country
US
Launch date
2025-06-13
Launch site
AFWTR
Launch vehicle
Mass (kg)
RCS (m²)

Purposes: comms

External: N2YO · Heavens-Above · Gunter

§ Orbital elements

Epoch: 2026-05-25T02:49:45.115392Z

Period
96.11 min
Inclination
70.0006°
Eccentricity
0.0003974
Mean motion
14.98334333 rev/d
Perigee alt
569.3 km
Apogee alt
574.8 km
Semi-major
6,950.2 km
B*
1.4014e-4
RAAN
201.6048°
Arg perigee
265.7341°
Mean anomaly
94.3364°
Rev number
5,213

§ Raw data

STARLINK-344361 64358U 25126Q   26145.11788328  .00001580  00000+0  14014-3 0  99942 64358  70.0006 201.6048 0003974 265.7341  94.3364 14.98334333 52134

JSON: /api/v1/satellites/64358 · /tle

For live sub-satellite position, see the globe view (requires WebGL).

§ Visibility from observer

Set your observer location to see the next 7 days of passes ≥ 10°. The values pass through the URL so the page stays shareable.

No JS? Fill the form by hand. The geolocation button needs JavaScript.